Weather Roundup
Issued by NWS Springfield, MO

Home | Current Version | Previous Version | Text Only | Print | Product List | Glossary On
Versions: 1 2 3 4 5 6 7 8 9 10 11 12 13 14 15 16 17 18 19 20 21 22 23 24 25 26 27 28 29 30 31 32 33 34 35 36 37 38 39 40 41 42 43 44 45 46 47 48 49 50
000
NZUS99 KSGF 270507
HRRSGF

HOURLY WEATHER
NATIONAL WEATHER SERVICE SPRINGFIELD MO
1100 PM CST WED NOV 26 2014

......SGF CWA......

CITY           SKY/WX    TMP DP  RH WIND       PRES   REMARKS
SPRINGFIELD    CLOUDY    33  24  69 NW18G29   30.29R WCI  22
JOPLIN         CLOUDY    33  24  69 N15       30.38R WCI  23
WEST PLAINS    CLOUDY    35  26  69 NW22G31   30.20R WCI  23
ROLLA          CLOUDY    31  28  89 NW21G26   30.20R WCI  18
OSAGE BEACH    CLOUDY    34  25  69 NW8       30.28R WCI  27
BRANSON        CLOUDY    34  25  69 NW17G28   30.29R WCI  23

......SURROUNDING SGF CWA......

CITY           SKY/WX    TMP DP  RH WIND       PRES   REMARKS
CHANUTE        CLEAR     28  22  78 N10       30.41R WCI  19
PARSONS        CLEAR     30  23  75 N14       30.42R WCI  19
COFFEYVILLE    CLEAR     33  23  66 N16       30.41R WCI  23
EMPORIA        CLEAR     26  20  77 NW12      30.44R WCI  16
GROVE OK       CLEAR     34  27  75 NW14G24   30.39R WCI  24
ROGERS AR      PTCLDY    32  26  78 NW8       30.33R WCI  25
SILOAM SPRINGS CLEAR     32  19  59 NW13      30.36R WCI  22
HARRISON AR    PTCLDY    34  26  72 NW12      30.26R WCI  25
NEAR YELLVILLE CLEAR     37  23  56 W16G23    30.27R WCI  28

......KANSAS AND MISSOURI......

CITY           SKY/WX    TMP DP  RH WIND       PRES   REMARKS
KANSAS CTY INT CLOUDY    27  21  78 N14       30.39R WCI  16
DOWNTOWN KC    CLOUDY    30  22  72 NW14G24   30.39R WCI  19
COLUMBIA       CLOUDY    33  30  88 NW13      30.25R WCI  24
SEDALIA        CLOUDY    32  27  81 NW15G26   30.31R WCI  22
ST JOSEPH      CLOUDY    27  21  78 N17       30.41R WCI  14
ST LOUIS       LGT SNOW  34  32  92 N8        30.17R FOG     WCI  27
SPIRIT OF STL  CLOUDY    34  32  92 NW9       30.17R WCI  27
KIRKSVILLE     CLOUDY    29  26  89 N10       30.29R FOG     WCI  20
WICHITA        PTCLDY    32  21  64 N12       30.44R WCI  23
TOPEKA         CLOUDY    29  20  69 N10       30.45R WCI  20
OLATHE         CLOUDY    29  22  75 N14G24    30.38R WCI  18

......TENNESSEE......

CITY           SKY/WX    TMP DP  RH WIND       PRES   REMARKS
MEMPHIS        CLEAR     43  29  57 NW13      30.18S
NASHVILLE      CLOUDY    41  34  76 W12G21    30.07R

......ARKANSAS.......

CITY           SKY/WX    TMP DP  RH WIND       PRES   REMARKS
FAYETTEVILLE   CLEAR     33  25  72 NW14G23   30.33R WCI  23
FT SMITH       CLEAR     41  26  55 N9        30.36R
LITTLE ROCK    CLEAR     46  26  45 NW6       30.27R

......OKLAHOMA.......

CITY           SKY/WX    TMP DP  RH WIND       PRES   REMARKS
TULSA          PTCLDY    35  24  64 N10       30.41R WCI  27
PONCA CITY     CLEAR     35  23  61 N12       30.43R WCI  27
MCALESTER      PTCLDY    41  26  55 N9        30.39R
OKLAHOMA CITY  PTCLDY    39  23  52 N6        30.42R WCI  35

......IOWA............

CITY           SKY/WX    TMP DP  RH WIND       PRES   REMARKS
DES MOINES     FLURRIES  24  19  81 NW17      30.37R WCI  11
QUAD CITIES    MOCLDY    26  19  74 N3        30.26R

......ILLINOIS........

CITY           SKY/WX    TMP DP  RH WIND       PRES   REMARKS
QUINCY         CLOUDY    28  25  88 N15       30.25R FOG     WCI  16
CHICAGO        CLOUDY    27  21  78 NW10      30.17R WCI  17




USA.gov is the U.S. government's official web portal to all federal, state and local government web resources and services.